Theta_e
307 307 307 307 307 306 306 306 307 307 307 307 307 307 308 308 308 309 309 309 309 306 303 302 301 302 303 304 305 305 305 308 311 311 311 309 306 306 304 304 304 306 307 308 309 309 309 310 311 313 313 313 312 314 313 313 313 312 313 312 310 311 312 312 314 314 313 313 312 312 313 313 313 313 314 316 316 315 316 317 317 317 318 318 319 319 319 319
307 307 307 307 307 306 306 306 307 307 307 307 307 308 308 308 308 309 309 309 308 305 302 302 301 302 304 304 305 305 306 310 312 311 309 308 306 306 306 306 306 307 308 309 309 309 309 311 313 313 312 312 312 313 313 313 313 312 314 312 311 313 313 314 315 313 314 314 313 312 313 313 313 313 314 315 315 315 315 317 316 317 317 317 318 319 319 318
307 307 307 307 307 306 306 306 306 307 307 307 308 308 308 309 309 309 309 308 306 303 302 301 302 303 304 305 306 306 309 314 311 309 308 308 307 307 307 306 307 307 308 310 310 310 311 312 313 313 312 312 312 312 312 312 313 313 314 313 313 314 313 313 313 313 314 314 313 312 312 313 313 313 313 314 315 314 315 315 316 316 316 316 317 319 318 318
307 307 307 307 306 306 306 306 306 307 308 308 308 308 308 308 309 309 309 306 303 302 301 301 303 304 304 305 307 309 314 315 309 309 309 307 308 307 307 307 306 307 308 309 310 311 312 312 313 313 312 312 312 312 312 312 313 313 312 313 313 313 313 313 313 313 312 313 314 313 312 313 312 312 313 314 314 314 315 315 315 315 316 317 318 319 319 319
307 307 307 307 306 307 307 307 307 307 307 308 308 307 308 308 308 308 307 305 303 302 301 302 303 305 304 307 310 312 316 313 308 310 307 307 307 307 306 307 307 307 308 310 310 312 312 313 313 312 311 312 311 311 312 312 312 312 312 313 313 313 312 313 312 311 311 312 313 313 313 312 312 312 312 314 314 314 314 313 313 314 316 317 319 320 319 320
307 307 307 307 307 307 307 307 307 307 307 307 307 307 307 308 308 307 305 303 302 301 301 302 304 305 305 309 312 314 317 310 308 310 307 307 307 307 308 308 309 309 309 311 312 312 312 312 311 312 311 312 311 312 312 312 312 312 313 312 313 313 312 312 311 310 310 312 312 312 313 312 312 313 312 312 313 312 312 312 313 314 315 318 321 321 320 319
307 307 307 307 307 307 307 307 308 307 307 306 306 306 306 306 306 306 305 303 302 301 301 303 305 305 306 311 313 316 315 309 310 310 307 308 307 308 309 309 310 310 311 312 312 311 311 311 311 312 312 312 312 311 312 311 311 312 313 312 312 312 312 311 310 309 309 311 311 311 312 312 313 312 311 312 311 311 311 312 313 315 317 319 320 320 320 319
307 307 307 307 307 307 307 307 307 307 307 306 304 303 304 304 304 304 303 302 301 301 302 304 305 305 307 312 316 316 313 311 311 310 308 308 307 308 309 310 310 311 312 311 311 311 310 311 311 312 312 311 312 312 312 312 311 311 312 312 312 312 311 310 309 309 309 310 310 310 311 311 311 311 310 311 311 311 312 311 313 315 315 318 320 320 319 319
307 307 307 307 307 307 307 307 308 307 307 306 304 302 302 302 303 303 302 302 301 302 302 304 306 305 306 312 317 314 313 312 309 308 307 307 307 307 309 311 311 311 312 311 311 311 310 311 311 311 311 311 311 311 311 312 312 312 313 312 312 311 311 310 310 310 310 310 310 311 310 310 310 309 310 311 310 311 312 312 313 313 314 316 317 319 319 319
307 307 307 307 308 308 307 307 308 308 307 306 304 302 302 302 303 303 302 302 302 303 303 305 306 306 309 314 316 312 311 309 307 307 307 306 308 308 309 311 311 311 312 312 312 311 311 311 311 311 311 311 311 311 311 312 312 313 313 312 311 311 311 310 310 310 310 310 310 310 311 310 310 309 310 311 310 311 312 312 313 313 314 314 316 318 319 320
307 307 307 307 307 307 307 307 307 308 308 306 304 303 303 303 303 303 303 302 303 303 305 306 306 307 312 314 314 312 309 307 308 308 307 307 308 309 309 309 310 311 311 312 312 313 313 312 311 311 311 311 311 310 311 311 312 312 312 312 311 311 310 310 310 310 310 310 310 310 311 310 310 310 311 311 311 312 312 313 313 313 314 314 315 316 317 319
307 307 308 306 305 306 307 308 308 309 309 308 307 306 305 304 305 304 304 303 304 305 306 306 306 309 313 314 312 313 310 310 309 308 307 307 307 308 309 308 309 310 312 313 313 313 313 313 311 310 310 311 311 310 310 310 310 311 311 311 311 311 310 310 311 310 310 310 310 310 310 310 311 311 311 311 312 313 313 313 312 313 314 314 314 315 315 317
308 307 306 305 306 308 309 309 309 309 310 310 310 309 307 306 306 305 305 305 305 306 306 306 307 309 314 314 311 311 311 310 308 307 307 307 308 308 308 308 309 309 311 312 313 313 313 312 311 311 310 310 310 310 309 309 310 311 311 311 310 310 310 311 310 310 309 310 309 310 309 310 311 311 311 311 312 313 313 313 312 313 314 314 315 314 315 316
308 307 306 306 308 310 310 309 310 310 310 310 310 310 309 307 307 306 306 306 306 307 306 306 307 311 316 313 310 310 310 311 309 308 308 308 309 309 308 308 309 309 310 311 311 312 313 312 312 311 311 311 310 310 310 310 309 310 310 310 311 309 309 311 310 309 310 309 309 309 308 311 312 311 311 310 311 313 312 313 312 313 314 313 314 314 314 316
308 307 306 308 310 310 310 310 310 310 310 310 310 310 310 309 309 307 306 307 308 308 306 307 309 313 316 311 311 311 311 312 310 308 308 308 309 310 310 309 310 309 310 311 312 313 312 311 312 311 311 311 310 310 310 310 310 311 309 309 310 309 309 312 310 310 309 309 309 310 309 312 313 311 311 311 311 313 313 313 313 314 314 314 314 314 314 315
308 307 307 309 310 311 311 311 311 311 311 311 311 311 311 310 309 307 307 309 310 308 308 312 313 314 314 311 313 312 311 312 309 308 308 307 309 309 309 309 310 310 310 311 313 314 313 313 313 312 311 310 310 311 311 310 311 311 310 310 311 310 310 311 311 309 310 310 310 310 310 313 313 311 311 311 311 313 313 314 314 314 315 315 314 314 315 314
308 307 308 310 311 311 311 311 311 312 312 313 315 314 312 311 310 308 308 310 309 307 309 313 312 312 313 311 313 312 311 310 308 308 307 307 309 308 309 310 310 311 312 313 314 315 314 313 313 313 312 311 312 312 311 310 310 311 310 311 312 312 311 311 311 310 310 310 310 310 311 312 313 312 311 311 312 313 313 314 314 314 315 315 314 314 315 315
307 307 308 310 311 311 310 310 312 312 313 315 317 315 313 312 311 310 311 310 309 310 311 311 310 312 311 310 312 313 312 310 307 307 307 307 307 308 309 310 310 312 315 314 314 315 314 313 314 314 313 313 313 312 311 311 311 312 311 310 312 312 311 311 312 311 311 310 310 311 311 312 312 312 312 312 312 313 313 314 314 314 314 314 315 314 315 315
307 306 308 309 310 310 309 310 312 313 315 317 315 314 314 313 311 312 313 312 312 315 315 312 311 311 311 311 312 313 312 309 306 308 308 307 308 309 309 310 311 313 315 315 314 315 314 314 314 313 313 313 314 313 312 313 313 313 312 312 311 311 310 312 313 313 313 312 310 311 311 312 313 312 312 312 312 312 312 313 314 315 314 314 314 314 314 315
306 306 307 309 310 309 309 311 313 313 315 316 315 316 317 317 316 315 314 314 314 315 314 312 311 310 311 312 312 313 312 308 307 308 308 308 309 309 309 309 311 313 315 316 316 316 316 315 313 313 314 315 316 316 316 315 314 314 313 312 311 310 310 311 313 313 314 313 312 312 312 312 313 312 312 312 312 312 312 313 314 315 315 313 314 314 314 315
306 305 306 308 309 308 309 311 313 313 313 314 316 318 317 316 317 316 314 315 315 314 314 313 312 311 312 313 313 313 313 310 309 308 308 308 309 309 308 309 310 312 314 315 316 316 315 315 314 317 318 317 318 317 316 315 315 313 313 312 311 310 310 312 313 313 314 313 312 313 313 312 313 313 313 313 313 313 313 314 315 314 315 314 314 314 314 315
306 306 305 307 308 307 310 311 312 313 313 315 316 315 315 314 315 314 314 316 315 314 314 313 313 313 312 313 313 312 313 313 309 307 307 307 308 308 309 309 311 313 315 315 315 314 313 314 317 320 319 318 319 317 315 315 315 313 312 311 310 310 310 312 314 313 314 313 312 314 313 313 314 314 314 314 314 314 314 314 315 314 315 315 315 314 315 315
305 306 304 305 306 306 309 311 312 313 315 316 315 314 314 314 314 313 314 316 316 314 314 314 314 312 313 314 313 312 313 313 311 308 308 307 308 308 308 309 310 313 314 313 313 313 312 315 319 319 317 317 317 317 315 315 314 313 312 310 310 311 309 311 314 314 314 314 312 313 313 313 313 313 314 314 314 315 316 316 316 314 314 315 315 316 317 318
304 305 305 305 305 305 307 310 312 313 314 315 314 314 312 312 313 314 315 317 316 314 314 314 314 313 313 312 312 313 314 314 312 309 307 308 308 308 308 310 311 312 312 313 314 311 312 316 317 317 317 316 316 316 315 313 312 313 313 310 310 312 310 310 313 314 314 315 314 313 311 311 312 312 313 314 314 314 315 315 314 315 314 315 316 318 320 320
303 304 305 305 305 304 305 310 314 314 314 314 315 313 310 311 314 314 317 319 316 315 315 314 314 313 311 311 312 313 313 312 309 309 308 308 308 308 308 309 310 311 311 311 312 310 313 316 316 317 317 316 315 315 315 313 312 312 314 312 311 312 312 312 312 312 312 314 315 313 311 310 311 312 313 314 314 313 313 313 313 314 315 315 316 318 319 320
303 304 305 306 306 304 306 312 314 312 314 314 314 310 308 311 313 313 317 319 315 314 314 314 313 311 310 311 312 311 311 310 308 308 309 309 309 309 309 309 310 311 311 311 311 311 314 315 316 317 316 316 315 313 314 314 311 311 313 312 312 312 313 313 313 312 312 313 315 313 310 310 311 311 312 314 314 313 314 314 314 314 314 315 315 316 317 320
303 304 304 305 306 305 310 314 312 313 314 314 312 308 309 313 313 314 319 319 314 313 313 313 312 310 310 311 309 310 311 310 308 308 308 308 309 308 309 310 310 310 312 312 310 313 316 316 316 317 316 315 313 312 316 315 310 311 315 313 311 312 313 314 313 313 313 313 314 314 312 311 310 311 313 314 313 314 315 315 315 314 315 316 315 316 316 318
303 304 304 305 305 306 309 311 313 315 314 312 309 307 312 315 314 317 321 318 315 313 311 311 310 309 310 310 309 310 311 309 308 308 307 308 309 308 308 309 310 310 312 312 309 312 317 317 316 316 315 313 312 313 315 314 311 314 316 313 312 313 313 314 313 313 314 313 313 315 315 311 310 312 313 313 311 312 314 314 315 315 315 315 315 315 315 316
303 305 305 304 305 306 305 309 314 316 314 311 307 309 313 315 316 319 318 316 315 312 310 311 310 309 311 312 310 310 310 310 310 308 307 307 308 308 308 309 309 310 311 311 309 312 315 315 315 315 314 312 313 314 315 314 314 316 316 313 313 313 314 314 313 312 314 314 313 314 315 311 308 310 311 312 311 312 313 313 315 315 315 315 315 316 315 315
304 305 304 304 306 307 306 308 312 313 314 310 306 310 315 317 319 318 317 317 316 313 311 311 311 310 311 313 311 310 310 311 310 308 307 308 307 308 307 307 309 310 311 311 309 311 313 313 314 313 312 312 314 315 315 315 315 315 314 312 312 313 313 313 313 312 313 314 313 314 315 312 309 309 310 312 312 312 312 313 314 314 314 314 314 315 314 314
305 305 304 304 307 307 309 312 313 312 312 308 306 313 318 319 317 316 317 318 315 313 312 311 311 311 310 312 311 310 311 310 310 309 309 309 308 309 307 308 309 309 310 310 310 310 311 312 312 311 311 312 313 313 314 314 313 314 314 313 313 313 314 313 313 314 313 313 313 313 314 313 311 309 310 312 313 312 313 313 314 314 313 313 314 314 314 314
306 305 304 306 306 306 309 312 311 310 308 307 310 316 319 315 312 315 317 316 315 315 313 312 312 310 310 311 310 310 310 310 310 310 310 310 310 310 309 309 310 310 309 309 310 311 310 311 311 312 312 311 312 312 312 313 313 313 313 313 313 312 312 312 313 314 313 313 315 314 313 314 312 310 311 313 312 312 312 312 313 313 312 313 313 313 313 313
308 308 309 310 310 310 312 309 307 307 307 308 313 317 314 309 310 317 317 314 315 314 311 312 311 309 310 310 310 310 309 310 310 309 310 310 311 311 311 310 310 311 310 310 310 310 310 311 311 312 312 311 311 311 312 313 313 312 312 313 313 312 311 312 312 312 311 313 315 315 314 313 311 311 312 312 312 312 312 312 312 312 312 313 313 313 313 313
313 313 313 313 314 314 314 311 308 307 308 311 316 315 310 307 312 318 316 313 314 312 311 312 310 309 310 310 310 310 310 310 309 309 311 310 311 312 312 310 309 310 311 310 310 310 310 311 312 312 313 312 312 311 312 313 313 312 311 311 312 312 311 312 311 309 310 313 315 315 313 312 311 312 313 312 312 312 312 312 312 312 312 312 312 312 313 313
314 313 313 314 314 313 310 310 309 307 311 315 314 310 307 308 312 315 314 313 312 311 311 311 309 309 309 310 311 310 311 312 310 310 311 310 312 312 311 311 310 309 310 310 310 310 309 310 311 311 312 311 311 311 311 311 312 313 312 311 312 312 312 311 312 311 310 311 314 313 312 311 311 313 313 313 312 311 311 312 311 312 312 312 313 313 313 312
313 314 314 313 312 310 308 309 309 309 314 315 309 307 309 312 313 313 313 312 311 311 310 310 309 309 309 312 312 311 311 311 311 312 311 311 312 311 310 311 310 309 310 310 311 311 310 310 311 310 310 311 311 311 312 311 311 313 313 312 311 312 312 312 313 314 312 311 312 313 312 312 312 313 313 313 312 311 311 311 310 312 312 312 314 313 312 311
315 315 315 312 310 310 310 311 310 312 316 313 309 309 312 313 312 311 311 311 311 311 309 310 310 309 309 311 311 311 311 310 311 311 311 311 312 310 311 311 311 310 310 310 311 311 310 311 311 310 310 310 310 311 312 310 311 312 312 312 311 312 313 312 313 313 312 312 312 313 314 314 312 312 312 312 313 312 311 311 311 311 312 312 313 312 312 312
318 318 316 313 310 310 312 312 312 316 316 311 311 312 313 312 311 310 310 310 310 310 309 310 311 310 310 310 310 311 310 309 310 311 310 311 311 311 311 312 311 311 310 310 311 311 311 311 312 310 310 311 310 311 311 311 311 311 311 312 312 312 312 312 313 313 313 313 314 314 314 313 311 310 311 312 313 313 312 311 312 311 311 312 312 312 312 312
318 318 315 311 310 311 312 312 314 317 315 311 312 313 312 311 310 309 309 310 310 310 310 310 311 310 310 310 310 310 309 309 309 310 310 310 311 311 311 312 312 312 311 310 311 312 312 312 312 311 310 311 311 311 311 312 311 311 311 311 311 312 312 312 312 312 311 312 312 313 313 312 311 311 311 312 313 313 313 312 312 312 312 312 312 312 312 312
316 316 313 310 310 312 312 314 317 316 314 312 312 312 311 310 309 308 308 309 309 309 310 310 310 311 311 310 310 310 309 309 309 309 309 309 310 311 311 312 312 312 311 311 311 312 312 312 311 311 310 311 311 311 311 311 311 312 312 312 312 312 312 312 312 311 311 311 311 312 312 310 311 313 312 312 313 313 313 313 313 313 312 312 312 313 313 313
315 314 312 308 311 314 314 316 317 314 314 314 312 311 310 308 309 308 308 308 308 308 308 308 309 310 310 309 309 309 309 309 308 309 309 309 309 310 311 311 311 311 311 310 310 312 312 312 312 312 311 311 310 310 310 310 311 311 312 312 312 312 312 312 313 312 310 311 311 311 311 310 311 314 313 312 313 313 312 313 313 313 312 312 313 313 313 314
314 313 310 306 310 316 316 315 314 313 314 313 310 309 308 308 308 308 308 307 307 307 307 307 308 309 309 309 309 308 308 308 308 308 309 309 308 310 310 310 310 310 309 309 309 312 314 312 311 311 311 310 310 310 310 311 311 311 311 311 310 311 312 312 314 314 312 312 311 311 311 311 312 314 313 312 313 312 312 313 312 312 312 313 313 313 313 313
311 311 309 305 308 315 315 313 313 313 313 310 308 308 307 307 308 307 307 307 306 306 307 307 308 308 308 308 308 307 307 308 308 308 308 308 308 310 310 309 309 308 308 308 309 312 312 311 310 310 309 308 309 309 309 310 310 310 311 310 310 311 311 312 313 313 313 313 312 312 311 311 312 313 313 313 312 312 313 312 312 312 312 313 312 312 313 313
308 309 307 305 308 314 315 312 311 311 311 310 310 309 307 307 308 307 307 306 305 306 306 306 306 306 306 307 307 306 307 308 308 307 309 308 308 310 310 309 308 307 308 309 310 311 310 309 309 308 307 307 307 307 307 309 310 311 311 311 311 311 312 314 313 312 313 313 311 312 311 311 312 314 313 313 312 312 312 312 312 312 312 312 312 313 313 313
308 308 306 305 308 310 310 309 309 308 309 310 309 309 307 306 306 306 305 304 304 305 305 306 306 306 305 306 306 306 306 307 307 308 308 307 307 309 309 309 307 306 308 311 311 310 309 308 308 307 306 307 307 306 307 309 309 311 310 311 311 310 312 314 313 313 313 313 311 312 311 311 311 313 313 313 312 312 312 312 312 312 312 312 312 313 313 313
307 306 304 304 305 307 306 306 306 306 306 305 305 305 305 305 306 305 303 303 304 304 305 306 305 305 306 306 307 307 307 306 307 307 307 307 306 307 308 307 306 306 310 312 310 309 308 308 308 308 307 307 306 306 307 307 308 309 309 309 309 309 310 312 313 313 313 313 312 312 312 312 313 312 312 312 312 312 313 312 312 312 312 313 312 313 313 313
306 304 303 304 304 304 305 304 304 304 304 303 304 305 305 305 305 304 303 304 305 304 304 305 305 305 306 308 308 308 307 306 306 307 306 306 306 306 306 306 305 307 310 311 309 308 308 307 308 308 307 306 306 306 306 306 307 307 307 308 308 308 309 310 312 312 312 313 313 313 313 314 313 312 312 312 312 313 313 313 313 312 312 313 313 312 312 313
305 305 303 303 303 303 304 303 304 304 303 303 304 305 305 305 305 306 305 304 304 304 304 305 305 305 305 306 307 306 306 307 307 307 306 306 306 305 305 304 304 305 307 307 307 308 308 307 307 307 306 305 305 305 305 306 306 306 307 307 307 308 308 309 310 310 311 312 312 312 313 314 312 310 310 311 312 313 314 315 315 314 313 313 313 312 312 313
304 304 303 303 304 304 304 304 304 303 303 304 305 305 306 305 306 306 304 304 305 305 304 304 305 305 304 305 306 306 306 307 306 306 307 306 306 305 305 305 305 304 305 305 306 307 307 306 305 305 305 305 305 304 305 305 305 305 306 306 307 307 308 308 309 309 310 311 311 312 313 313 311 310 309 310 311 312 312 313 313 313 314 313 312 313 313 312
303 303 303 304 304 305 304 304 303 303 304 304 304 305 305 305 306 305 304 304 305 306 305 304 304 304 303 304 305 305 306 306 306 306 306 306 305 305 305 305 304 304 304 304 305 306 305 305 305 304 305 305 304 304 304 304 304 304 305 306 306 307 307 308 309 310 311 312 312 313 314 313 311 311 311 311 311 312 312 311 312 313 313 312 312 313 312 312
302 302 302 303 303 303 303 303 303 302 303 303 304 304 305 304 304 304 303 303 303 304 304 304 304 304 303 303 304 305 305 305 305 305 304 304 304 304 304 304 304 304 303 303 304 304 304 304 304 304 304 304 304 304 304 304 304 304 306 307 307 308 308 309 309 309 311 313 313 313 313 312 311 311 312 311 311 311 311 311 312 312 311 311 312 312 312 312
301 302 302 302 302 301 301 302 302 301 302 303 303 303 303 303 303 303 302 302 302 303 304 304 304 304 303 303 304 304 304 304 304 303 303 303 302 302 303 303 303 303 303 303 303 303 303 303 303 303 303 303 303 303 304 305 305 305 306 307 308 309 309 309 309 309 310 311 311 310 310 310 310 310 311 311 311 311 311 311 312 312 313 313 312 312 312 312
Wind_Speed
8 8 8 8 8 8 7 7 8 8 7 6 6 6 6 6 6 7 6 6 6 6 6 5 5 6 7 7 8 8 5 4 5 7 6 2 0 3 3 4 5 4 3 2 5 8 9 11 11 10 9 8 6 5 8 6 4 5 6 6 6 6 4 3 5 2 2 8 11 11 9 8 11 8 5 6 5 7 7 5 5 5 4 6 7 9 14 15
8 8 8 8 8 8 7 7 7 7 7 6 6 6 6 6 6 6 6 7 7 6 5 5 5 6 6 8 8 7 5 5 7 5 2 4 4 4 5 5 3 2 2 3 6 9 10 11 12 11 8 7 6 6 8 6 6 7 5 6 6 3 3 3 1 1 1 7 11 9 6 5 9 9 6 7 7 8 7 7 7 7 7 7 9 11 14 13
8 9 8 8 8 7 7 7 7 6 6 7 7 6 6 6 6 6 7 7 6 5 4 4 5 5 6 8 7 6 5 7 6 5 6 5 3 3 2 1 1 1 2 3 4 7 6 7 10 11 8 7 6 7 8 7 7 6 4 6 4 3 4 4 1 2 2 5 10 9 5 4 6 7 6 6 6 8 7 6 6 7 8 9 11 12 13 13
9 9 9 8 8 7 7 7 7 7 7 7 7 7 6 6 7 7 7 6 5 4 3 4 4 5 6 7 6 4 5 7 5 7 6 4 1 0 2 3 3 3 2 4 4 4 4 5 9 10 8 7 6 7 7 7 5 4 5 4 2 4 3 5 3 3 3 2 7 8 7 6 6 4 5 5 6 7 6 5 3 3 9 10 11 12 13 13
9 9 9 8 7 8 8 7 7 8 7 7 7 6 6 6 7 7 7 5 4 3 3 4 4 5 6 5 4 3 6 5 6 7 5 4 1 2 3 5 5 4 4 6 4 5 6 7 9 9 7 6 7 8 7 7 3 4 5 3 4 2 2 7 5 4 4 1 5 7 6 6 6 4 5 6 6 1 1 4 2 2 8 12 12 12 12 12
9 9 9 8 8 8 8 7 7 7 7 7 6 6 7 7 7 7 6 4 3 3 3 3 4 6 5 3 3 5 6 1 6 6 5 3 1 3 4 3 2 4 6 7 6 7 7 8 9 9 7 6 8 8 6 7 4 5 5 1 2 0 2 8 6 4 2 3 5 4 4 5 6 6 4 6 4 4 6 3 3 4 8 11 13 12 11 11
9 10 9 8 8 8 8 8 8 7 7 7 6 6 7 6 6 5 4 4 3 3 3 3 4 6 4 2 3 6 5 2 5 6 5 3 1 4 4 4 3 5 6 7 7 7 7 9 9 7 6 5 8 7 5 7 6 6 3 6 3 2 4 6 6 3 1 1 2 1 3 5 6 4 4 5 1 4 3 3 4 6 9 11 11 11 11 10
9 9 9 9 8 8 8 8 8 7 7 7 6 5 5 5 5 4 4 3 2 3 3 3 4 6 4 2 5 6 3 6 6 6 5 3 1 4 4 5 4 4 6 4 4 5 5 8 6 6 6 4 6 6 6 8 8 8 3 7 6 4 6 6 5 4 2 2 2 2 4 4 2 0 3 5 3 4 3 5 6 7 10 10 10 11 10 9
10 9 9 9 9 9 8 8 8 7 7 7 5 5 5 5 4 3 3 3 2 2 3 3 4 5 3 3 7 4 5 6 5 5 5 3 1 3 3 2 1 3 4 2 2 4 4 6 5 5 4 2 5 6 7 8 6 5 4 8 7 6 7 5 4 4 2 2 1 4 4 3 2 2 5 5 4 4 5 6 8 8 9 9 9 10 9 9
10 10 9 9 9 9 8 8 8 7 7 7 5 4 4 4 4 3 3 2 2 2 2 3 4 4 3 5 8 2 6 5 5 5 4 3 2 1 1 0 1 3 3 1 1 2 2 2 2 3 3 3 5 4 6 6 1 4 6 8 7 6 6 4 4 4 2 2 1 5 4 4 4 4 6 6 5 5 7 8 8 9 9 9 9 9 8 9
11 10 10 9 9 8 8 7 6 6 7 6 4 4 3 3 4 3 2 2 2 2 3 4 4 5 5 7 6 1 6 5 4 3 3 3 3 3 1 1 1 2 2 1 1 3 4 2 1 3 2 4 6 5 4 1 1 5 8 8 7 6 6 4 4 4 3 3 1 4 3 4 4 6 3 8 6 6 7 9 9 9 9 9 9 9 8 8
11 10 10 8 7 7 7 6 6 6 6 5 5 4 3 3 4 3 2 2 2 2 2 4 5 5 5 7 2 4 6 4 3 3 3 3 4 3 1 1 2 2 2 1 1 3 5 2 3 4 1 4 7 6 4 2 3 7 7 7 7 6 6 7 5 3 4 3 2 3 5 7 9 7 5 8 5 6 7 8 9 8 8 9 9 8 7 8
11 10 9 7 7 6 7 6 6 6 5 5 5 4 4 3 4 4 3 3 2 2 3 4 4 3 5 3 4 4 4 2 3 3 3 4 4 3 1 1 1 1 2 3 3 3 4 3 5 3 1 4 3 4 4 5 4 7 6 5 5 7 8 8 5 4 5 2 3 5 6 7 10 8 7 6 4 6 7 8 8 8 7 7 8 7 8 8
12 10 8 7 6 6 7 7 7 7 6 6 5 5 4 5 5 4 4 3 3 3 3 4 3 2 5 1 5 3 2 1 3 3 4 5 5 5 2 0 0 1 2 3 3 4 4 2 4 2 1 2 3 6 6 6 5 6 5 5 5 6 5 8 5 6 7 3 3 7 7 4 9 10 7 4 5 7 8 8 8 7 6 7 7 8 8 9
11 9 8 7 6 7 7 8 8 8 8 7 6 6 6 6 6 5 4 3 3 3 2 2 2 3 5 3 4 1 1 2 3 3 4 5 6 6 4 2 2 1 1 1 2 2 1 2 4 4 3 1 5 8 6 5 5 5 4 5 6 5 4 9 5 6 6 4 7 9 6 3 8 10 7 5 7 8 8 8 8 7 7 7 7 8 8 9
10 8 7 6 7 8 8 9 10 10 9 7 6 5 6 6 6 5 4 3 3 2 1 2 2 4 4 3 4 2 2 2 3 2 4 5 4 4 4 4 3 1 1 1 1 1 2 2 1 0 2 4 7 7 5 5 5 5 6 5 4 6 4 6 6 6 4 4 9 10 7 2 6 10 7 6 9 9 8 8 8 7 7 8 7 8 8 8
10 8 7 6 7 8 9 10 10 10 8 5 3 1 3 5 6 5 4 3 2 2 2 3 2 4 2 3 3 4 3 2 2 2 4 5 3 2 3 5 3 2 3 4 4 3 3 3 1 2 3 4 4 5 5 6 5 6 6 4 3 5 4 2 5 7 5 6 9 11 9 5 4 9 9 8 10 10 8 7 8 8 7 8 8 8 8 9
10 8 7 7 7 8 10 11 11 10 7 4 6 5 4 5 6 4 3 3 3 3 3 3 3 3 2 4 2 3 3 2 2 3 4 5 3 2 2 3 2 3 5 6 5 4 4 4 3 3 4 4 4 6 6 4 3 4 5 4 3 5 6 4 3 6 6 8 9 10 11 9 6 8 10 9 9 9 8 8 7 8 8 8 8 9 9 10
10 8 7 7 7 9 10 11 11 11 6 6 8 7 8 7 5 4 5 5 3 2 1 1 2 2 3 5 3 3 2 1 3 4 5 5 4 4 3 2 2 4 5 5 5 4 3 4 4 4 5 5 4 5 4 3 2 1 2 3 3 4 6 3 4 4 2 6 10 10 10 12 10 10 11 11 10 9 9 9 8 7 8 9 9 10 10 11
10 8 7 6 7 9 10 9 10 12 8 5 4 3 4 2 2 3 4 5 1 4 3 1 2 2 2 5 3 1 1 3 4 4 6 5 5 6 5 4 4 5 4 2 4 2 2 5 6 3 2 3 3 1 2 3 2 0 1 3 4 4 5 2 5 4 0 5 9 10 10 12 12 10 10 10 11 10 11 11 10 9 10 11 12 12 12 13
11 8 6 5 6 8 8 8 9 12 12 8 2 2 1 4 3 2 2 2 2 4 4 2 3 4 1 1 1 2 1 4 4 5 7 5 5 6 6 5 6 6 3 1 2 2 3 6 3 2 4 5 5 4 4 3 2 3 3 4 5 5 3 2 3 4 3 5 7 7 9 12 13 12 11 10 11 12 13 13 12 12 12 12 13 14 14 12
11 8 6 5 5 7 6 6 7 9 12 10 5 3 5 5 4 2 4 2 3 3 3 1 3 4 3 4 3 3 4 3 5 7 6 6 7 6 4 6 8 5 5 3 3 4 6 5 4 6 5 7 6 5 5 5 4 4 4 4 4 3 2 3 4 4 3 4 6 5 8 11 12 12 12 12 13 13 13 12 11 12 12 11 12 12 12 11
10 7 6 4 4 6 4 5 5 6 8 7 7 7 4 4 3 4 4 3 1 3 2 1 1 1 1 2 2 5 6 2 3 7 7 7 7 5 4 6 7 4 6 7 6 4 5 2 7 6 6 8 7 6 6 5 4 5 4 5 3 2 2 3 5 5 3 4 7 6 7 10 11 12 13 15 14 13 11 10 10 11 12 12 11 9 9 9
10 7 5 4 3 4 3 2 2 3 4 4 6 7 4 7 3 5 4 3 1 4 3 3 2 3 4 2 2 6 4 1 0 6 8 8 4 3 4 4 5 6 6 6 6 6 1 6 6 6 7 7 7 8 7 5 5 5 4 6 4 2 4 3 3 4 4 5 6 8 9 8 8 10 10 9 10 11 10 11 11 12 12 12 11 9 8 8
12 8 4 4 3 4 4 1 2 2 1 1 5 5 8 11 2 7 4 3 3 3 3 3 1 3 5 1 2 4 2 2 1 3 6 7 3 3 2 1 4 6 6 6 6 7 2 5 4 7 7 8 8 7 8 6 5 4 6 6 4 2 4 2 2 4 5 6 5 4 7 3 5 6 6 5 6 9 10 12 13 12 12 12 11 11 10 8
12 8 5 4 3 4 4 0 3 3 3 1 5 8 12 12 2 7 4 3 4 3 2 2 0 2 3 1 2 3 4 3 3 2 4 4 1 2 2 3 3 2 4 5 4 3 3 4 4 6 7 8 8 7 7 6 7 3 4 5 4 4 4 4 5 5 4 2 3 3 6 2 2 5 7 6 6 8 9 10 12 11 11 11 11 11 10 8
13 9 6 5 3 4 3 1 2 3 2 2 6 11 13 7 5 6 4 3 5 3 1 2 2 2 3 2 1 4 2 4 4 3 3 3 3 3 3 4 3 2 3 3 3 1 5 7 5 5 7 8 8 7 6 7 7 1 5 4 6 6 6 5 5 5 3 4 2 7 6 5 6 3 5 6 7 8 9 10 11 10 10 11 11 10 10 9
13 9 5 4 3 3 2 1 2 2 2 4 7 13 11 1 6 4 5 1 3 2 0 3 2 0 3 3 4 5 2 1 2 4 3 4 4 4 5 4 2 3 5 4 3 2 4 7 7 6 7 7 6 2 6 9 6 2 5 3 4 5 5 5 5 5 2 4 5 7 6 6 6 3 6 7 8 9 10 10 10 10 10 10 10 10 10 10
13 8 4 3 2 2 1 1 3 2 2 5 10 12 5 4 4 4 4 0 1 0 1 1 0 1 5 4 5 4 2 2 1 4 5 5 3 3 3 2 1 2 5 6 5 1 3 2 3 6 6 5 2 3 3 7 3 4 6 4 4 4 4 5 6 5 2 5 7 5 7 6 5 3 5 7 7 8 9 8 9 9 9 9 10 10 10 10
11 7 2 2 2 1 1 1 2 3 3 6 11 10 1 5 4 4 1 1 1 1 1 1 2 3 8 4 4 3 3 3 1 3 6 4 3 3 1 1 2 3 4 6 8 3 4 3 1 5 6 2 3 5 2 2 3 6 7 5 5 6 5 5 5 4 4 7 7 5 7 6 5 3 3 4 4 5 6 7 8 9 9 9 9 10 11 11
8 5 3 3 2 1 1 0 0 2 4 8 11 6 4 4 4 3 1 1 1 1 1 1 3 5 7 5 2 1 2 3 3 5 5 3 5 5 3 3 3 5 5 7 8 6 6 6 4 6 6 4 4 4 2 3 6 6 6 6 6 6 5 5 5 5 6 7 4 6 6 6 6 3 0 2 3 4 5 6 7 8 9 10 10 10 11 11
6 6 6 5 4 2 1 2 2 4 6 8 9 5 4 4 3 0 2 2 1 1 1 2 5 7 7 3 1 3 1 2 2 4 3 3 4 4 5 4 2 4 6 4 4 4 6 8 7 7 7 9 8 6 4 5 7 7 7 7 6 6 6 6 6 6 7 5 5 6 6 5 7 7 5 4 5 6 6 6 6 7 8 9 10 11 11 11
8 9 9 8 7 5 4 5 5 6 5 7 6 4 4 4 1 2 2 2 1 3 1 3 6 7 6 3 1 4 1 1 2 2 2 2 4 4 5 5 4 5 4 2 2 3 4 5 9 8 6 10 11 7 5 6 7 9 8 7 7 7 7 8 6 6 8 3 5 6 5 5 6 8 9 9 7 8 9 8 8 8 9 9 9 10 10 11
11 11 12 11 10 9 7 6 5 5 6 7 5 4 4 3 1 2 0 1 3 2 2 5 7 6 3 1 3 4 1 2 3 1 3 3 4 4 4 5 6 7 5 5 5 5 5 3 8 7 3 8 13 10 8 6 6 10 9 8 8 8 8 8 6 8 8 2 6 6 4 5 4 2 4 6 5 7 9 9 8 8 9 10 10 10 9 10
13 13 14 13 12 12 10 6 4 5 6 6 4 4 4 1 1 1 0 2 2 3 5 5 6 6 3 4 3 4 3 2 2 2 3 3 2 2 1 1 3 4 5 4 2 3 7 5 5 5 2 5 10 10 9 8 6 7 8 8 10 9 8 7 4 4 5 3 4 6 4 6 5 2 4 6 6 8 9 9 10 10 10 10 10 11 11 11
10 13 13 13 12 13 11 7 6 7 7 5 4 3 1 2 2 1 1 2 2 5 8 6 4 4 3 3 4 3 3 2 2 2 2 2 2 1 2 4 2 2 4 4 2 2 7 3 4 3 3 5 7 6 5 8 5 3 6 9 8 8 9 9 5 1 1 7 7 7 7 7 7 7 10 12 11 11 11 11 12 11 11 11 10 11 12 12
5 7 10 14 15 12 9 8 9 8 6 5 3 2 1 2 2 2 2 3 2 3 7 4 0 2 3 2 2 2 3 2 2 2 2 2 1 2 4 5 4 2 1 3 3 1 5 6 3 5 6 4 3 5 7 9 7 4 7 6 4 5 7 8 7 5 5 9 9 8 10 9 8 7 8 13 14 13 14 14 13 12 11 11 10 11 12 13
2 3 6 15 18 11 8 10 9 6 5 3 1 1 0 1 2 2 3 3 2 3 5 4 0 2 3 3 3 2 4 4 1 2 3 3 2 2 3 3 3 3 3 2 4 0 2 7 6 6 5 1 3 5 8 8 9 9 7 4 4 8 8 7 8 8 9 10 8 9 12 10 10 7 6 11 13 13 14 14 13 13 12 11 10 12 13 13
2 3 3 15 18 8 8 10 6 4 4 3 1 2 1 1 3 2 3 3 3 3 4 3 1 2 3 4 5 4 4 4 3 3 3 2 2 3 1 0 1 2 2 3 5 1 2 7 6 3 2 1 2 6 8 6 8 9 7 6 8 9 9 9 8 8 10 11 10 11 12 10 9 10 9 10 10 11 13 13 13 13 12 11 10 11 12 12
2 2 2 15 16 7 7 7 4 3 2 2 2 1 1 2 3 2 3 3 4 3 3 3 3 4 4 4 6 5 4 4 5 4 2 1 2 3 3 3 2 2 3 5 5 3 4 6 7 6 5 6 6 6 9 9 6 7 7 8 9 8 8 10 9 9 11 11 10 11 12 10 8 7 10 11 9 10 12 12 12 11 12 12 12 11 11 11
3 1 3 16 15 6 6 4 1 3 1 0 1 1 1 1 1 0 1 1 4 3 3 5 6 6 5 6 5 4 4 5 5 5 3 2 4 2 4 5 5 5 5 7 6 4 4 6 7 9 8 9 10 10 11 10 7 7 8 8 10 9 9 10 11 11 11 12 11 11 13 11 6 3 7 9 8 9 11 12 12 11 12 12 12 12 12 11
3 1 4 16 15 6 5 2 2 2 1 1 1 0 1 2 3 2 1 2 4 3 3 5 6 6 6 6 5 4 5 6 6 5 4 4 4 1 4 5 5 6 5 8 7 3 4 6 8 10 11 13 16 15 14 15 14 13 11 11 11 11 10 10 11 10 10 12 12 12 14 12 6 5 7 9 9 10 11 12 11 11 11 12 12 13 13 12
3 3 3 15 15 6 5 1 2 1 0 2 1 1 1 2 3 3 3 3 3 3 3 4 4 4 4 4 5 6 5 5 6 5 4 5 2 4 5 6 6 6 5 7 7 3 2 6 8 10 11 12 15 16 16 18 16 13 12 11 11 11 11 11 11 11 9 10 11 12 13 11 8 8 9 10 11 11 11 13 13 11 9 11 13 13 13 13
4 2 3 14 15 5 4 1 1 1 1 1 2 2 2 3 4 4 4 3 2 3 4 4 3 3 3 3 5 6 5 3 4 3 3 5 0 5 5 7 5 5 4 4 4 2 2 5 7 8 10 9 10 10 10 12 9 6 8 9 10 12 13 12 11 11 10 13 16 15 12 10 8 7 9 11 13 13 13 14 14 12 10 10 12 13 13 14
1 0 2 10 14 6 1 3 3 1 1 1 3 3 3 3 1 2 4 4 3 4 5 4 3 4 4 4 5 7 6 4 4 3 3 5 3 1 4 7 6 6 3 3 3 4 5 7 7 8 10 10 9 7 6 5 5 5 9 11 12 14 14 11 9 9 10 14 18 16 13 12 13 12 11 12 13 14 15 15 14 14 13 12 12 12 13 12
1 2 2 4 7 6 3 3 3 2 1 3 3 3 4 4 2 1 3 4 2 3 5 4 4 5 5 5 6 7 7 6 6 5 5 7 6 3 5 8 9 8 1 3 2 4 5 8 9 10 12 12 13 13 11 10 9 10 13 15 15 15 14 11 8 9 10 12 14 15 15 16 17 17 16 15 14 14 15 15 15 13 12 12 11 12 13 12
1 2 3 3 2 2 3 3 3 2 2 2 3 1 2 5 2 1 2 2 1 3 4 4 4 4 4 4 5 5 7 8 7 8 8 8 7 6 6 8 9 7 2 2 2 3 6 9 11 13 15 16 17 19 17 15 15 15 16 17 17 16 16 14 12 14 13 11 12 14 15 15 16 18 19 19 18 16 14 14 14 13 13 13 12 13 14 13
2 1 2 2 2 2 2 3 4 3 1 2 2 1 3 5 3 2 2 1 2 3 3 3 4 3 3 3 4 5 6 7 7 7 8 7 7 7 7 8 9 6 5 6 5 3 6 10 12 14 16 18 19 20 19 16 16 17 18 19 19 19 19 17 17 19 16 13 13 15 15 14 14 19 22 21 21 19 16 14 13 14 14 13 14 15 15 14
2 1 2 1 2 2 2 3 5 4 3 2 2 2 4 5 4 2 2 2 4 3 2 4 5 3 3 4 4 6 6 6 7 7 6 7 8 8 7 7 7 5 5 7 6 4 5 7 9 11 14 18 19 19 19 18 17 17 19 21 20 20 20 19 19 20 20 19 18 19 20 17 15 20 24 21 20 19 17 16 15 14 15 15 16 16 15 15
2 2 1 1 1 1 1 2 4 4 2 2 3 2 3 5 4 2 3 4 4 3 2 5 6 5 6 6 6 8 8 8 9 8 7 8 8 7 6 5 4 5 6 7 6 6 6 7 8 8 10 15 18 18 18 18 18 18 19 21 21 20 20 19 18 17 18 19 18 19 19 16 15 20 22 21 19 19 19 20 17 15 18 19 18 16 15 14
3 1 2 3 1 1 1 2 2 4 2 1 2 1 1 4 3 4 6 6 6 7 6 5 6 6 8 8 9 9 7 7 9 10 10 10 9 8 7 5 6 7 8 8 7 7 7 8 9 9 9 13 15 16 17 17 17 18 19 21 21 19 16 15 14 14 14 14 15 17 15 13 15 17 19 19 20 20 21 21 17 17 21 20 17 15 15 13
3 0 1 3 1 1 1 2 2 3 1 1 1 2 2 3 2 3 6 4 4 6 5 5 6 7 7 10 10 7 6 6 10 11 11 11 12 12 11 11 12 11 10 9 8 7 8 8 8 8 9 12 15 15 14 13 13 14 14 15 17 17 16 16 14 14 15 13 13 13 13 14 16 16 17 18 19 19 19 17 15 16 17 17 15 14 13 11
Wind_Direction
324 320 319 316 313 315 311 311 310 307 303 304 304 300 294 287 282 281 280 277 286 298 303 320 330 332 329 321 315 311 312 303 253 233 241 259 177 193 182 145 151 153 159 195 202 197 182 189 185 187 196 184 206 183 171 198 192 203 220 223 226 218 202 163 182 185 98 134 140 153 174 173 153 148 147 159 148 134 149 147 139 132 87 83 106 122 129 135
319 314 314 315 315 316 313 313 312 310 308 308 304 301 296 288 284 282 285 289 293 299 307 323 330 328 324 315 311 305 306 284 248 225 141 107 112 116 109 119 144 162 195 220 205 196 186 183 178 186 196 185 184 168 171 180 196 217 224 223 227 202 116 60 117 100 41 147 141 148 177 181 154 146 165 185 156 156 169 149 161 156 126 120 132 141 138 142
318 316 317 318 320 319 317 312 306 310 310 307 303 298 292 289 289 286 289 291 291 301 310 322 327 322 318 313 303 297 298 261 220 150 123 127 115 95 86 78 337 255 223 236 212 203 201 179 178 192 199 194 182 181 186 174 194 219 226 231 212 133 101 79 98 95 60 142 146 148 159 161 137 141 180 199 166 179 199 159 171 174 150 143 143 149 148 153
324 323 322 319 321 319 315 309 305 309 309 306 301 296 292 290 291 292 294 293 293 303 308 321 323 318 318 311 292 289 280 243 171 120 141 167 163 3 325 322 301 282 250 231 207 205 222 188 187 202 207 196 177 191 192 173 191 197 215 261 93 140 147 118 118 110 99 142 155 147 155 158 132 156 190 197 189 201 211 164 158 172 152 148 147 155 157 160
330 328 323 315 315 315 314 313 311 306 304 305 301 297 293 292 296 297 296 293 295 298 304 321 321 322 321 302 275 262 261 233 134 125 162 180 218 322 323 306 281 256 223 214 195 190 205 199 194 202 213 193 170 193 189 168 201 200 208 329 53 173 161 116 112 102 102 128 155 155 164 150 136 180 199 214 224 220 107 126 120 139 145 151 153 158 162 165
333 325 318 315 315 316 317 314 310 304 302 302 297 295 294 296 297 295 294 289 287 289 302 321 327 330 322 284 254 250 258 239 118 149 171 187 253 357 340 319 254 207 203 203 195 198 198 195 194 196 209 195 180 192 172 159 214 233 199 168 77 267 104 117 117 95 98 176 166 156 136 139 170 185 192 233 253 38 49 83 125 132 138 147 154 160 167 171
325 320 320 322 317 315 313 310 309 306 302 298 289 284 287 287 284 287 289 278 277 290 302 319 332 337 328 259 229 239 243 100 119 166 171 188 315 14 14 53 108 162 190 202 200 204 195 196 200 198 203 193 187 185 159 165 209 249 200 154 148 79 111 115 114 113 96 167 133 116 149 183 205 178 175 225 226 79 79 114 140 134 135 144 155 166 172 175
322 324 326 321 314 311 310 309 310 305 301 299 287 279 283 277 271 276 275 270 275 289 303 320 335 342 346 278 239 223 171 102 121 172 178 189 29 28 40 69 93 153 198 225 218 215 206 206 199 197 205 185 185 176 163 181 201 238 215 143 149 116 121 112 118 129 106 114 109 193 197 190 211 339 207 203 143 118 128 148 156 147 145 153 164 171 174 174
330 327 322 317 315 313 310 308 306 303 300 297 290 282 280 274 267 262 261 265 276 292 309 314 330 341 342 283 256 220 112 99 127 155 165 171 123 46 49 74 131 196 222 250 243 237 227 214 191 209 233 158 177 170 176 203 198 209 183 142 149 135 129 132 137 128 117 131 182 219 202 161 138 260 226 178 133 137 155 167 163 159 161 163 167 173 176 172
332 326 321 319 318 313 309 306 303 302 300 296 290 280 270 266 262 252 250 257 271 291 299 305 334 336 304 260 255 218 102 120 143 137 146 159 176 153 70 49 242 255 248 195 246 271 288 250 178 230 261 159 173 164 184 217 167 146 156 140 139 137 139 157 146 136 158 136 222 232 197 160 153 225 216 140 135 165 168 174 168 169 171 170 169 172 178 174
332 329 324 321 319 317 316 315 314 308 306 305 299 291 272 258 254 245 241 245 263 279 288 310 334 334 291 263 264 110 112 137 153 143 154 165 194 208 222 339 300 287 271 198 57 11 348 347 156 224 234 161 167 152 149 170 109 146 157 148 141 150 153 176 174 160 193 154 184 243 202 177 187 221 187 106 134 180 175 173 172 178 174 170 172 170 178 178
336 333 327 327 330 331 330 333 330 319 316 311 307 303 277 258 255 246 237 228 224 256 284 315 328 340 286 259 307 84 127 151 169 170 177 185 200 208 228 322 302 309 318 296 59 21 350 2 225 236 149 164 167 151 131 115 156 154 174 181 160 180 186 185 182 171 214 164 123 241 225 206 205 201 130 102 137 173 178 174 171 182 175 172 174 174 184 181
340 336 335 342 346 347 345 341 335 329 323 312 305 293 265 246 249 243 229 214 203 244 280 315 329 326 271 253 75 107 155 168 188 181 186 192 193 188 211 308 293 294 322 331 15 3 335 322 268 264 153 210 157 120 132 132 164 160 190 223 177 205 204 177 180 192 206 145 117 230 240 205 191 176 131 122 158 164 177 176 172 180 177 181 180 187 191 185
341 343 349 355 356 356 352 346 343 338 328 316 304 285 256 239 239 235 227 212 206 237 269 308 329 279 261 91 90 150 192 229 214 190 185 189 191 185 179 285 166 259 309 328 353 348 330 293 256 207 158 292 107 136 155 143 180 173 182 227 215 230 178 141 164 199 194 143 157 224 254 209 168 161 144 151 180 176 178 174 179 181 181 193 190 202 204 193
346 352 358 2 2 360 358 355 349 342 333 324 305 279 250 237 231 224 221 210 225 252 277 294 304 265 245 124 101 156 140 203 196 177 188 190 198 188 168 174 167 223 282 319 1 12 8 217 228 185 127 75 149 174 180 162 191 185 194 214 213 234 149 123 141 198 202 155 174 215 252 218 162 155 146 167 190 191 190 179 183 186 188 205 202 210 215 205
354 359 3 7 6 4 4 357 351 348 342 332 313 278 243 228 218 211 208 213 238 237 253 247 240 271 264 105 106 135 115 142 146 156 187 189 208 183 158 181 177 203 226 202 152 122 157 188 245 195 137 167 187 200 194 186 195 193 225 231 194 220 197 133 136 177 204 166 185 216 255 254 160 154 139 160 187 193 202 192 188 196 199 212 218 217 221 216
2 6 10 12 12 10 6 359 0 2 357 0 10 334 213 204 196 195 201 213 211 176 236 272 266 271 259 109 130 137 86 60 105 136 165 173 199 167 176 192 181 193 164 151 171 175 178 178 168 191 195 199 209 219 211 213 208 187 219 241 205 229 235 168 139 150 183 205 205 215 239 262 170 157 154 164 184 194 210 209 200 209 214 220 231 229 227 223
9 10 13 15 16 12 9 9 13 17 22 73 84 82 113 152 162 164 175 169 158 177 217 248 253 257 157 137 136 94 52 24 129 146 155 159 166 159 188 187 164 182 168 159 173 190 189 187 206 200 185 198 208 219 228 243 240 199 207 228 215 217 235 236 138 129 181 216 220 216 226 242 215 174 174 173 183 200 215 228 227 225 229 231 239 241 238 234
10 12 16 18 18 15 17 20 24 28 47 110 101 92 111 125 140 159 182 185 190 230 220 157 242 296 97 116 100 68 38 82 153 167 159 151 158 163 164 174 187 194 195 180 164 184 206 189 208 218 195 191 197 227 258 339 355 230 210 252 250 223 233 227 103 97 203 224 223 225 226 235 229 200 192 185 186 212 229 238 243 239 243 246 246 247 246 243
9 12 18 22 21 18 26 33 37 39 51 105 122 138 135 119 177 166 191 205 248 342 334 1 289 292 92 107 101 52 102 158 171 168 158 157 173 180 178 192 203 203 218 203 144 146 256 219 208 221 185 148 120 66 10 42 64 168 228 250 253 251 255 198 116 108 152 245 233 232 237 241 241 227 212 197 192 218 237 240 241 239 245 249 249 251 247 244
8 10 15 23 24 22 37 52 50 51 56 61 37 239 50 5 340 21 348 213 102 3 316 328 301 279 305 5 328 332 269 178 164 151 155 167 191 198 181 189 212 202 178 99 102 123 240 237 200 86 63 89 108 110 117 130 159 210 237 246 238 239 247 123 122 132 147 247 238 223 242 247 245 244 235 219 210 222 234 238 239 241 247 251 253 253 249 247
6 7 9 10 18 24 47 68 64 61 59 51 37 51 58 18 340 317 310 259 106 29 315 296 272 270 268 262 268 276 259 202 156 151 155 178 202 208 170 193 224 194 132 154 188 181 218 226 107 94 92 103 118 142 161 170 185 218 237 250 247 224 203 139 154 177 177 243 242 221 246 254 248 246 241 234 232 233 236 240 245 249 253 253 252 249 245 245
3 3 0 355 8 19 44 80 72 60 53 45 41 48 47 358 321 225 246 275 97 68 22 24 289 281 186 215 191 212 236 249 164 150 156 190 203 217 208 205 217 175 157 195 214 220 221 142 95 118 148 143 148 164 177 185 203 228 248 254 248 133 238 222 152 170 196 238 269 273 270 266 254 248 244 238 240 241 236 237 243 249 252 251 249 248 243 242
1 354 349 348 346 355 15 65 75 53 44 45 48 43 8 348 319 205 232 277 100 76 50 34 17 34 33 36 174 217 232 352 244 133 156 201 186 184 228 218 201 188 184 199 227 246 203 81 100 149 168 176 176 176 192 218 221 213 232 261 270 156 243 282 116 163 209 213 252 276 272 258 236 237 238 227 231 236 228 227 232 233 238 241 243 247 245 242
356 344 335 331 329 345 348 10 82 25 313 96 50 22 349 347 310 199 246 254 121 97 126 111 66 48 22 352 181 250 250 116 24 97 159 211 199 167 189 199 221 204 176 175 225 245 105 84 145 163 178 199 194 197 209 231 253 218 204 235 258 211 213 234 176 211 234 203 190 266 279 239 175 209 218 191 200 216 212 217 225 225 224 227 230 236 236 232
351 342 326 313 322 337 321 192 73 348 262 135 29 353 344 342 228 186 255 223 111 58 127 137 285 47 18 263 148 271 241 141 57 77 167 210 241 241 201 174 221 215 156 173 233 259 109 124 182 173 192 207 213 232 211 213 263 254 160 179 210 218 209 206 215 231 262 241 152 237 279 274 213 224 204 188 200 203 200 208 220 222 217 218 223 227 226 220
348 341 320 306 308 316 321 42 24 307 274 65 3 342 344 330 190 181 260 190 108 15 11 60 352 15 11 3 240 271 252 112 112 133 170 203 181 236 233 186 195 160 146 196 238 196 127 147 176 192 206 211 225 237 186 197 253 261 109 146 186 201 209 211 231 241 285 329 228 214 244 275 275 245 172 190 213 208 206 208 214 216 209 211 218 217 214 209
345 338 317 303 300 308 325 346 311 317 24 14 340 342 345 287 178 208 264 182 89 332 40 51 26 283 333 328 241 268 348 108 183 126 141 202 190 225 235 218 221 146 154 224 237 134 146 174 182 194 211 221 232 235 153 194 240 100 108 149 182 201 226 222 243 253 264 306 261 199 199 258 263 187 155 187 212 221 217 209 207 207 202 204 208 207 207 202
345 338 320 304 304 309 289 266 305 336 8 328 332 344 346 176 186 245 260 124 52 316 155 305 130 264 319 306 207 234 274 245 318 93 145 185 207 251 258 241 264 148 169 234 257 122 145 185 191 204 227 234 219 58 132 203 228 109 127 151 172 199 228 224 247 266 237 265 271 198 185 253 277 203 180 187 209 230 228 215 206 202 201 206 207 207 208 202
349 352 353 337 356 341 273 226 286 294 282 310 332 342 269 193 231 247 231 85 244 84 95 295 336 326 327 330 164 176 227 221 78 135 165 168 194 217 356 24 253 228 198 227 253 238 140 116 196 221 242 270 87 74 83 193 143 132 159 186 193 200 214 226 243 262 253 253 253 189 182 242 275 248 205 194 214 246 237 212 196 196 205 213 213 212 213 208
4 26 48 33 43 115 244 162 95 286 290 316 327 316 231 223 256 257 58 78 257 65 161 308 353 335 342 358 76 98 204 187 149 188 193 171 184 191 192 200 218 232 229 224 231 219 179 184 206 207 216 212 145 132 127 146 157 173 201 211 215 213 211 229 226 220 249 252 202 157 175 223 247 254 151 160 191 243 244 214 199 206 216 218 216 218 220 218
37 60 66 59 75 98 309 316 296 281 295 316 314 280 240 238 236 240 84 157 211 40 87 357 352 345 347 338 10 22 338 160 150 218 233 214 204 200 208 219 229 233 237 221 194 203 216 216 203 188 194 201 204 194 165 166 187 206 222 218 231 235 224 240 232 217 244 240 142 151 179 215 244 258 266 241 212 221 229 227 228 237 243 239 227 221 221 223
74 76 71 66 67 51 347 301 278 279 303 312 291 255 260 261 216 66 89 170 48 30 13 334 329 327 318 273 10 18 305 118 69 239 242 253 237 221 217 234 268 267 261 285 292 261 242 202 182 184 188 199 214 221 197 191 197 207 217 217 230 245 249 251 240 237 251 225 134 150 178 230 255 250 245 240 224 218 219 225 236 246 253 258 249 234 226 224
86 77 66 54 45 28 353 315 292 286 297 294 268 241 261 262 85 62 219 80 43 358 314 327 317 306 289 232 43 18 259 104 51 276 218 219 231 233 224 211 227 253 265 268 278 270 267 235 180 182 158 180 205 230 243 244 217 213 224 233 237 251 262 259 257 264 266 204 141 151 176 226 237 181 191 207 214 221 223 224 231 242 248 254 256 247 234 227
83 69 58 44 28 17 7 357 342 310 296 288 261 251 266 269 93 161 228 34 23 326 319 312 294 276 219 151 97 41 11 53 48 312 240 226 250 262 272 185 209 243 257 252 251 247 262 264 159 154 109 170 208 232 247 262 251 220 224 236 239 247 258 265 280 303 307 291 184 179 210 234 236 221 198 204 213 218 220 220 222 236 243 245 247 241 231 226
80 65 55 39 22 15 23 29 4 330 303 284 264 260 288 33 22 52 42 354 335 343 325 292 255 263 242 173 157 119 43 341 312 294 238 221 295 305 57 42 33 247 251 261 277 256 257 250 127 158 213 208 236 254 237 248 262 214 218 238 246 251 260 265 262 153 280 273 249 218 227 238 247 253 228 218 221 214 211 213 217 228 238 239 239 233 225 222
85 70 59 31 12 6 19 17 351 324 293 282 287 307 57 62 16 25 35 342 319 339 319 299 207 296 281 250 208 138 25 323 239 253 251 212 205 122 108 82 53 11 324 284 280 290 277 271 245 254 250 204 227 270 245 239 250 247 242 252 268 256 254 259 260 247 233 253 254 223 217 228 245 250 211 206 216 215 210 212 215 220 227 231 229 223 219 218
149 117 73 23 2 352 4 360 339 309 287 284 279 91 130 132 68 36 26 348 304 302 304 293 335 310 279 278 282 325 336 309 232 278 277 236 186 134 128 110 72 42 32 305 270 222 292 278 265 261 268 159 162 242 248 228 225 248 270 283 262 254 251 239 245 256 250 254 257 227 219 231 244 242 210 205 212 215 213 210 210 212 215 221 219 215 216 215
202 192 86 9 354 347 1 351 324 292 287 280 192 132 131 121 106 47 6 341 294 291 302 289 269 269 268 289 299 308 310 299 306 303 267 233 187 145 131 330 103 59 14 308 282 288 285 277 269 229 223 251 224 238 255 239 214 231 256 254 248 257 262 254 247 253 255 258 260 250 242 243 244 242 242 235 222 215 212 204 204 208 208 212 212 211 213 212
295 207 68 2 353 355 357 338 288 291 300 310 349 117 135 127 126 82 16 342 305 285 296 302 282 267 275 292 291 290 290 285 290 283 259 261 212 145 68 2 311 318 319 275 266 286 278 269 270 252 233 253 258 248 263 272 251 234 240 244 249 251 256 261 258 254 259 262 262 264 260 254 254 246 239 241 233 222 215 205 205 209 207 207 209 212 215 214
295 195 46 360 356 354 331 312 264 336 308 134 11 135 110 14 257 189 81 346 302 276 283 294 284 278 287 290 282 283 288 281 273 268 255 242 233 197 50 15 321 316 311 268 261 295 289 268 275 274 260 258 265 271 278 283 283 272 264 261 260 258 258 263 260 252 253 259 262 268 266 263 270 245 224 234 238 230 221 211 209 212 213 213 211 211 217 218
301 106 27 356 358 346 304 294 107 340 286 57 18 110 20 326 284 299 330 300 288 262 260 277 278 281 280 282 292 296 289 282 274 271 260 248 252 282 49 23 322 307 307 282 279 343 334 277 272 273 268 268 272 275 275 271 272 274 269 265 267 267 262 261 266 267 262 265 268 267 265 265 264 239 233 244 245 236 228 220 218 222 223 222 217 214 217 220
17 69 23 355 357 328 285 305 125 253 72 57 336 233 279 279 275 296 303 302 298 278 274 276 280 286 283 293 300 291 292 289 273 268 261 258 262 71 49 21 340 291 290 293 290 2 4 270 269 274 274 276 274 270 261 253 256 263 262 261 267 273 273 270 273 279 276 270 269 264 261 263 262 246 243 250 245 234 229 225 225 229 229 226 223 219 218 219
36 71 33 4 4 331 267 344 19 274 81 70 256 227 223 259 287 295 293 311 324 303 294 287 285 286 286 299 288 282 296 294 261 265 276 274 264 84 33 14 0 296 305 338 316 340 299 268 277 283 283 284 275 265 253 241 241 268 283 283 282 282 289 293 284 277 271 262 260 260 259 263 267 250 236 243 237 220 219 226 228 230 228 227 226 222 221 219
5 117 61 19 22 34 61 19 354 315 29 305 273 267 258 239 230 305 296 299 297 297 296 288 292 287 281 286 275 271 275 263 261 275 278 275 261 109 5 360 336 303 344 40 331 307 287 275 275 273 275 280 279 281 287 276 271 288 291 288 285 283 288 296 290 277 274 270 264 262 265 272 273 263 249 247 238 224 224 228 228 228 227 228 228 225 225 224
339 16 11 21 35 54 81 47 359 318 333 313 279 271 267 244 168 122 277 273 263 282 282 275 285 280 269 275 274 269 265 256 258 264 267 275 271 280 342 335 308 297 16 78 330 298 278 268 263 261 265 271 279 287 296 295 285 283 285 282 280 280 278 276 272 266 271 277 272 271 279 283 282 277 267 257 248 241 239 232 224 224 227 230 232 228 228 227
5 27 4 346 15 60 83 70 23 352 352 310 290 302 266 260 258 165 218 238 278 286 272 260 265 269 265 272 278 276 270 264 260 262 272 280 280 285 304 302 290 282 227 179 244 261 267 265 262 263 264 267 274 282 287 285 279 280 283 281 277 276 272 264 259 261 267 272 270 273 278 281 288 292 284 273 265 261 255 243 231 227 226 227 230 230 226 222
34 77 35 340 318 8 26 22 7 348 306 271 285 289 266 265 270 258 226 242 275 267 259 238 227 244 271 276 279 277 270 270 269 267 273 280 282 289 292 286 277 267 254 247 237 243 270 268 266 268 269 271 274 279 282 282 279 277 276 275 274 272 267 262 260 261 262 262 265 271 269 265 274 282 278 274 274 271 269 267 262 255 246 234 229 228 224 221
55 88 101 305 301 12 9 336 327 309 278 273 270 250 265 270 264 270 289 282 270 254 251 260 252 266 287 274 271 270 269 277 279 275 283 290 288 289 291 284 271 257 265 269 258 262 273 269 273 276 275 275 275 277 279 278 277 275 272 271 270 267 265 264 263 262 261 261 262 265 264 260 258 263 264 266 270 272 273 276 273 268 262 247 232 228 226 226
37 22 40 263 242 87 349 286 293 286 258 234 243 229 263 272 271 293 286 266 271 262 238 263 276 290 290 278 266 266 274 285 283 278 285 287 284 287 287 281 274 273 282 284 278 271 268 272 281 281 277 274 272 273 274 272 273 274 273 272 269 267 268 265 262 260 258 260 258 255 258 262 257 256 260 262 262 260 259 260 257 253 255 248 234 227 227 228
36 30 332 290 257 108 266 258 280 286 267 201 245 287 272 264 279 316 294 267 265 271 272 282 292 292 283 273 268 275 292 297 282 278 282 278 276 281 280 272 280 288 285 279 277 270 266 273 278 275 271 270 269 269 269 273 279 277 271 267 264 261 260 258 258 257 255 258 260 255 255 260 258 256 261 262 257 252 250 250 248 247 248 242 230 224 225 224
24 135 283 288 272 130 266 274 251 266 296 44 310 292 280 280 309 313 297 273 245 264 277 287 292 294 282 275 279 298 328 307 283 282 282 275 271 271 268 265 268 271 271 270 271 266 262 267 272 270 269 270 272 274 278 284 283 271 262 258 253 249 249 254 259 260 257 257 259 258 259 264 266 267 268 263 254 248 246 244 244 245 242 231 221 220 220 211